Voltar ao catálogo

KNACKSAT-2

AtivoCiênciaVLEO
NORAD 67683·PAYLOAD·🇹🇭 Thailand

Lançado Nov 20, 1998 de Baikonur Cosmodrome

Loading…

Próximas Passagens (próximas 24 horas)

TLE

AtualizadoSource: Space-Track

Época: Sep 14, 2026, 05:21 UTC

1 67683U 98067XZ  26257.22317614  .00056336  00000-0  48483-3 0  9991
2 67683  51.6255 203.8302 0008001 159.8891 200.2423 15.68709818 34210

Acompanhe KNACKSAT-2 em tempo real com AllMySat

Download on the App Store